Weather in Chornyi Kut

Ukraine / Odesa District     47°23′36″N   30°27′27″E
temp.,
°C
wind,
m/s
gust,
m/s
humid.,
%
clouds,
%
prec.,
mm/h
press.,
hPa
HPBL,
m
1 march, mon
mon123:00+1wnw3696100 0.1 1024325
02:00+1wnw2497100 0.7 1024190
05:00+1nw1298100 0.1 1024106
08:00+1nne4696100 0.1 1025364
11:00+2nne4688100 0.0 1028531
14:00+3n5684100 0.1 1029618
17:00+2n4690100 0.1 1030429
20:00+1n378798 0.1 1032313
2 march, tue
tue223:00+1nnw3585100 0.1 1033194
02:00+1nw2383100 0.1 103390
05:00+1wnw237996 0.0 103177
08:00+1w478363 0.0 1031258
11:00+6w686626 0.0 1029746
14:00+9w796055 0.0 1027746
17:00+8w6116767 0.0 1024664
20:00+6wnw6147633 0.0 1023439
3 march, wed
wed323:00+5nw6137722 0.0 1023440
02:00+4nnw6138324 0.0 1024694
05:00+3n71175100 0.0 1026915
08:00+3nnw6117079 0.0 1028748
11:00+6n68590 0.0 10291063
14:00+8nnw56500 0.0 10281136
17:00+7nnw35540 0.0 1028433
20:00+4nw12650 0.0 102922
4 march, thu
thu423:00+3sw22700 0.0 102822
02:00+1ssw337624 0.0 102735
05:00+1sw34780 0.0 102458
08:00+2ssw49710 0.0 1023306
11:00+8ssw69610 0.0 1020709
14:00+11ssw710580 0.0 1017951
17:00+10ssw510640 0.0 1015447
20:00+6ssw49809 0.0 1014168
5 march, fri
fri523:00+4wsw34871 0.0 101477
02:00+4ssw22800 0.0 101322
05:00+3ssw12800 0.0 101322
08:00+4s22790 0.0 101260
11:00+10ssw355750 0.0 1011401
14:00+14ssw464575 0.0 1010789
17:00+12ssw235284 0.0 100850
20:00+8wsw336472 0.0 100926